BEIDOU-2 G3

Last updated on Tue Sep 22 2026 00:03:11 GMT+0000 (Coordinated Universal Time)

1 36590U 10024A 26264.50484409 -.00000137 00000+0 00000+0 0 9994 2 36590 4.7395 60.9950 0004910 0.8437 199.9434 1.00273413 59732
UTC large
Height (km)
Speed (km/s)
/
Latitude / Longitude
Inclination (degrees)
Orbital Period (minutes)
Azimuth
Elevation
Range (km)
Doppler Factor

Next 0 passes for location: London (51.5072 / 0.1276)

No passes found over London.
BEIDOU-2 G3